Showing default

SATGUS, 62713

Orbit data source: Space-Track

SATGUS, 62713 is an American payload satellite in SSO that was launched on Tue, 14 Jan 2025 UTC via an FALCON 9 launch vehicle from the Air Force Western Test Range (AFWTR). Payload-class satellites include a variety of spacecraft equipped with specific instruments for various scientific and technological missions. These include communications satellites like Starlink; space stations such as the ISS; scientific satellites like the Hubble; Earth observation satellites from companies like Planet Labs, Umbra, and HawkEye 360; GPS; miniature CubeSats for education and research; and military/defense satellites.

Loading next visibility...
Identifier
62713, 2025-009DJ
Orbit
SSO
Country
Flag of USUS
Related business
Manufacturer
Terran Orbital
Mission
Operational Commercial Imaging
Bus & Motor
CUBESAT 12U, Unknown motor
Mass
~20 kg wet, ~20 kg dry
Launch date (UTC)
2025-01-14 (1 year ago)
Launch vehicle
FALCON 9
Launch site
Air Force Western Test Range (AFWTR)
Object type
Payload
Rocket body
Debris
Shape & HBR
Box, 0.6 m
Radar Cross Section
0.123 m², Medium (>0.1 m² and < 1m²)

Expand to show TLE details & history
Last TLE update: 15 hours ago

TLE from 15 hours ago
0 SATGUS
1 62713U 25009DJ  26175.19565775  .00005480  00000-0  43065-3 0  9999
2 62713  97.6895 256.5042 0008071 107.2094 253.0014 15.01260474 78615
Epoch: 2026-06-24T04:41Z
TLE epoch observation values (Epoch: 2026-06-24T04:41:44.829Z)
Latitude
-0.00005°
Longitude
-86.28893°
Altitude
567.707 km
Speed
7.576 km/s
True Right ascension
17h 06m 01s
True Declination
0° 00' 00"
Sunlit
Object was in full shadow at epoch
Visualization orbit readout
Latitude
Unknown
Longitude
Unknown
Altitude
Unknown
Speed
Unknown
Apparent Right ascension
Unknown
Apparent Declination
Unknown
Sunlit
N/A
Visualization observer readout
Local Sidereal Time
06:50:51
Azimuth
Unknown
Elevation
Unknown
Doppler factor
Unknown
Orbital elements
Apogee altitude
565.611 km
Perigee altitude
554.412 km
Semi-major axis
6,938.149 km
Eccentricity
0.00081
Inclination
97.6895°
RAAN
256.5042°
Arg. of periapsis
107.2094°
True anomaly
252.91298°
Mean anomaly
253.0014°
Eccentric anomaly
252.95719°
Mean motion
3.75559 °/min
Orbital period
95.86 mins
BSTAR
0.00043065
Loading maneuver chart data...
Computing Atmospheric mass density...
Loading historical data...
Loading historical data...
Loading historical data...
Loading historical data...
Loading historical data...
Loading historical data...
Loading historical data...

Documentation

Showing up to 5 results
|